Cherokee, IA

5:27 AM CDT on September 27, 2016 (GMT -0500)
Cherokee Municipal

Weather History for KCKP - November, 2011

Change the Weather History Date:

Saturday, November 5, 2011

  Actual Average Record
Temperature  
Mean Temperature 50 °F -  
Max Temperature 60 °F 49 °F 76 °F (1975)
Min Temperature 39 °F 26 °F -5 °F (1991)
Degree Days  
Heating Degree Days 16    
Moisture  
Dew Point 39 °F    
Average Humidity 71    
Maximum Humidity 93    
Minimum Humidity 36    
Precipitation  
Precipitation 0.00 in - - ()
Sea Level Pressure  
Sea Level Pressure 29.80 in    
Wind  
Wind Speed 13 mph (SSE)    
Max Wind Speed 28 mph    
Max Gust Speed 37 mph    
Visibility 9 miles    
Events      
Averages and records for this station are not official NWS values.
T = Trace of Precipitation, MM = Missing Value Source: NWS Daily Summary

Daily Weather History Graph

Daily Weather History Graph

Search for Another Location

Airport or City:

Trip Planner

Search our weather history database for the weather conditions in past years. The results will help you decide how hot, cold, wet, or windy it might be!

Date:

Astronomy

Nov. 05, 2011 Rise Set
Actual Time 8:00 AM CDT 6:10 PM CDT
Civil Twilight 7:31 AM CDT 6:39 PM CDT
Nautical Twilight 6:57 AM CDT 7:13 PM CDT
Astronomical Twilight 6:24 AM CDT 7:46 PM CDT
Moon 3:33 PM CDT (11/5) 3:05 AM CDT (11/5)
Length of Visible Light 11h 08m
Length of Day
10h 09m
Waxing Gibbous, 78% of the Moon is Illuminated
Nov 5
Waxing Gibbous
Nov 10
Full
Nov 18
Last Quarter
Nov 25
New
Dec 2
First Quarter

Hourly Weather History & Observations

Time (CDT) Temp. Windchill Dew Point Humidity Pressure Visibility Wind Dir Wind Speed Gust Speed Precip Events Conditions
12:15 AM 41.0 °F 35.8 °F 35.6 °F 81% 29.99 in 10.0 mi South 8.1 mph - N/A   Clear
12:35 AM 41.0 °F 36.4 °F 35.6 °F 81% 29.98 in 10.0 mi South 6.9 mph - N/A   Clear
12:55 AM 41.0 °F 35.2 °F 37.4 °F 87% 29.98 in 10.0 mi South 9.2 mph - N/A   Clear
1:15 AM 42.8 °F 37.5 °F 37.4 °F 81% 29.98 in 10.0 mi South 9.2 mph - N/A   Clear
1:35 AM 42.8 °F 37.5 °F 37.4 °F 81% 29.97 in 10.0 mi South 9.2 mph - N/A   Clear
1:55 AM 42.8 °F 37.5 °F 37.4 °F 81% 29.97 in 10.0 mi South 9.2 mph - N/A   Clear
2:35 AM 41.0 °F 36.4 °F 37.4 °F 87% 29.96 in 7.0 mi South 6.9 mph - N/A   Clear
2:55 AM 41.0 °F 35.8 °F 39.2 °F 93% 29.95 in 7.0 mi South 8.1 mph - N/A   Clear
3:15 AM 41.0 °F 35.2 °F 37.4 °F 87% 29.95 in 7.0 mi SSE 9.2 mph - N/A   Clear
3:35 AM 41.0 °F 35.2 °F 37.4 °F 87% 29.94 in 7.0 mi SSE 9.2 mph - N/A   Clear
3:55 AM 41.0 °F 35.2 °F 37.4 °F 87% 29.94 in 7.0 mi SSE 9.2 mph - N/A   Clear
4:15 AM 41.0 °F 35.2 °F 37.4 °F 87% 29.92 in 7.0 mi SSE 9.2 mph - N/A   Clear
4:35 AM 41.0 °F 35.2 °F 37.4 °F 87% 29.92 in 7.0 mi SSE 9.2 mph - N/A   Clear
4:55 AM 41.0 °F 35.8 °F 37.4 °F 87% 29.91 in 7.0 mi SE 8.1 mph - N/A   Clear
5:15 AM 39.2 °F 34.2 °F 37.4 °F 93% 29.91 in 7.0 mi SSE 6.9 mph - N/A   Clear
5:35 AM 39.2 °F 33.6 °F 37.4 °F 93% 29.91 in 7.0 mi SSE 8.1 mph - N/A   Clear
5:55 AM 41.0 °F 34.7 °F 37.4 °F 87% 29.90 in 7.0 mi SSE 10.4 mph - N/A   Clear
6:35 AM 41.0 °F 35.2 °F 37.4 °F 87% 29.89 in 7.0 mi SSE 9.2 mph - N/A   Clear
7:00 AM 41.0 °F 34.3 °F 39.2 °F 93% 29.88 in 7.0 mi SSE 11.5 mph 16.1 mph N/A   Clear
7:35 AM 41.0 °F 34.7 °F 37.4 °F 87% 29.87 in 7.0 mi SSE 10.4 mph - N/A   Clear
7:55 AM 41.0 °F 33.1 °F 39.2 °F 93% 29.87 in 7.0 mi SSE 15.0 mph 20.7 mph N/A   Clear
8:35 AM 41.0 °F 32.2 °F 39.2 °F 93% 29.85 in 5.0 mi SSE 18.4 mph 21.9 mph N/A   Clear
8:55 AM 42.8 °F 35.4 °F 39.2 °F 87% 29.85 in 5.0 mi SSE 15.0 mph - N/A   Clear
9:15 AM 42.8 °F 36.2 °F 41.0 °F 93% 29.86 in 7.0 mi SSE 12.7 mph - N/A   Clear
9:35 AM 42.8 °F 38.0 °F 41.0 °F 93% 29.85 in 7.0 mi South 8.1 mph - N/A   Clear
9:55 AM 44.6 °F 38.8 °F 41.0 °F 87% 29.85 in 7.0 mi South 11.5 mph 17.3 mph N/A   Clear
10:15 AM 44.6 °F 39.2 °F 41.0 °F 87% 29.84 in 10.0 mi South 10.4 mph - N/A   Clear
10:35 AM 46.4 °F 40.4 °F 41.0 °F 81% 29.83 in 10.0 mi South 13.8 mph 20.7 mph N/A   Clear
10:55 AM 48.2 °F - 41.0 °F 76% 29.82 in 10.0 mi South 20.7 mph 29.9 mph N/A   Clear
11:15 AM 50.0 °F - 41.0 °F 71% 29.81 in 10.0 mi South 19.6 mph 26.5 mph N/A   Clear
11:35 AM 51.8 °F - 41.0 °F 67% 29.80 in 10.0 mi South 21.9 mph 28.8 mph N/A   Clear
11:55 AM 53.6 °F - 41.0 °F 62% 29.79 in 10.0 mi South 25.3 mph 34.5 mph N/A   Clear
12:15 PM 53.6 °F - 37.4 °F 54% 29.78 in 10.0 mi South 24.2 mph 34.5 mph N/A   Clear
12:55 PM 55.4 °F - 35.6 °F 47% 29.76 in 10.0 mi South 24.2 mph 32.2 mph N/A   Clear
1:15 PM 57.2 °F - 35.6 °F 44% 29.75 in 10.0 mi South 23.0 mph 35.7 mph N/A   Clear
1:35 PM 59.0 °F - 35.6 °F 42% 29.76 in 10.0 mi South 26.5 mph 33.4 mph N/A   Clear
1:55 PM 59.0 °F - 35.6 °F 42% 29.75 in 10.0 mi South 25.3 mph 32.2 mph N/A   Clear
2:15 PM 60.8 °F - 35.6 °F 39% 29.73 in 10.0 mi South 26.5 mph 33.4 mph N/A   Clear
2:35 PM 59.0 °F - 35.6 °F 42% 29.71 in 10.0 mi South 23.0 mph 34.5 mph N/A   Clear
2:55 PM 60.8 °F - 33.8 °F 36% 29.70 in 10.0 mi South 23.0 mph 36.8 mph N/A   Clear
3:15 PM 60.8 °F - 35.6 °F 39% 29.69 in 10.0 mi SSE 27.6 mph 32.2 mph N/A   Clear
3:35 PM 60.8 °F - 35.6 °F 39% 29.69 in 10.0 mi South 27.6 mph 33.4 mph N/A   Clear
3:55 PM 60.8 °F - 35.6 °F 39% 29.69 in 10.0 mi South 24.2 mph 34.5 mph N/A   Clear
4:15 PM 59.0 °F - 35.6 °F 42% 29.68 in 10.0 mi South 26.5 mph 32.2 mph N/A   Clear
4:35 PM 59.0 °F - 35.6 °F 42% 29.68 in 10.0 mi South 25.3 mph 32.2 mph N/A   Clear
4:55 PM 57.2 °F - 37.4 °F 48% 29.66 in 10.0 mi SSE 23.0 mph 28.8 mph N/A   Clear
5:15 PM 57.2 °F - 39.2 °F 51% 29.66 in 10.0 mi SSE 19.6 mph 27.6 mph N/A   Clear
5:35 PM 55.4 °F - 39.2 °F 54% 29.66 in 10.0 mi SSE 21.9 mph 29.9 mph N/A   Clear
5:55 PM 55.4 °F - 41.0 °F 58% 29.65 in 10.0 mi SSE 20.7 mph 28.8 mph N/A   Clear
6:15 PM 53.6 °F - 39.2 °F 58% 29.65 in 10.0 mi SSE 18.4 mph 26.5 mph N/A   Clear
6:55 PM 53.6 °F - 41.0 °F 62% 29.65 in 10.0 mi SSE 19.6 mph 26.5 mph N/A   Clear
7:15 PM 51.8 °F - 41.0 °F 67% 29.64 in 10.0 mi SSE 16.1 mph 26.5 mph N/A   Clear
7:35 PM 51.8 °F - 41.0 °F 67% 29.64 in 10.0 mi SSE 18.4 mph 27.6 mph N/A   Clear
7:55 PM 51.8 °F - 41.0 °F 67% 29.65 in 10.0 mi South 18.4 mph 26.5 mph N/A   Clear
8:15 PM 51.8 °F - 41.0 °F 67% 29.65 in 10.0 mi SSE 20.7 mph 26.5 mph N/A   Clear
8:35 PM 51.8 °F - 42.8 °F 71% 29.66 in 10.0 mi SSE 18.4 mph 28.8 mph N/A   Clear
8:55 PM 51.8 °F - 42.8 °F 71% 29.65 in 10.0 mi SSE 18.4 mph 31.1 mph N/A   Clear
9:15 PM 50.0 °F - 42.8 °F 76% 29.66 in 10.0 mi South 19.6 mph 29.9 mph N/A   Clear
9:35 PM 50.0 °F - 42.8 °F 76% 29.66 in 10.0 mi South 16.1 mph 23.0 mph N/A   Clear
9:55 PM 50.0 °F - 42.8 °F 76% 29.66 in 10.0 mi South 17.3 mph 23.0 mph N/A   Clear
10:15 PM 50.0 °F - 42.8 °F 76% 29.67 in 10.0 mi South 18.4 mph 26.5 mph N/A   Clear
10:35 PM 50.0 °F - 42.8 °F 76% 29.66 in 10.0 mi South 18.4 mph 24.2 mph N/A   Clear
10:55 PM 48.2 °F - 42.8 °F 82% 29.65 in 10.0 mi South 18.4 mph 25.3 mph N/A   Clear
11:15 PM 48.2 °F - 42.8 °F 82% 29.64 in 10.0 mi SSE 18.4 mph 23.0 mph N/A   Clear
11:35 PM 50.0 °F - 42.8 °F 76% 29.63 in 10.0 mi SSE 18.4 mph 26.5 mph N/A   Clear
11:55 PM 50.0 °F - 42.8 °F 76% 29.62 in 10.0 mi SSE 18.4 mph 26.5 mph N/A   Clear